Time,TemperatureF,DewpointF,PressureIn,WindDirection,WindDirectionDegrees,WindSpeedMPH,WindSpeedGustMPH,Humidity,HourlyPrecipIn,Conditions,Clouds,dailyrainin,SolarRadiationWatts/m^2,SoftwareType,DateUTC
2013-04-02 00:00:00,33.0,26.9,29.88,SSW,203,1.0,3.0,78,0.00,,,0.00,0,WeatherCatV1.14B232,2013-04-01 23:00:00,
2013-04-02 00:05:00,32.9,26.8,29.88,SE,130,3.0,8.0,78,0.00,,,0.00,0,WeatherCatV1.14B232,2013-04-01 23:05:00,
2013-04-02 00:10:00,32.9,26.8,29.88,ESE,113,0.0,2.0,78,0.00,,,0.00,0,WeatherCatV1.14B232,2013-04-01 23:10:00,
2013-04-02 00:15:00,33.0,26.9,29.88,SE,134,2.0,5.0,78,0.00,,,0.00,0,WeatherCatV1.14B232,2013-04-01 23:15:00,
2013-04-02 00:20:00,32.9,26.8,29.88,SSE,159,0.0,3.0,78,0.00,,,0.00,0,WeatherCatV1.14B232,2013-04-01 23:20:00,
2013-04-02 00:25:00,32.9,27.1,29.88,South,173,0.0,4.0,79,0.00,,,0.00,0,WeatherCatV1.14B232,2013-04-01 23:25:00,
2013-04-02 00:30:00,32.9,27.1,29.88,South,178,0.0,5.0,79,0.00,,,0.00,0,WeatherCatV1.14B232,2013-04-01 23:30:00,
2013-04-02 00:35:00,32.9,27.1,29.88,ESE,122,2.0,2.0,79,0.00,,,0.00,0,WeatherCatV1.14B232,2013-04-01 23:35:00,
2013-04-02 00:40:00,32.9,27.1,29.88,SE,140,2.0,11.0,79,0.00,,,0.00,0,WeatherCatV1.14B232,2013-04-01 23:40:00,
2013-04-02 00:45:00,32.9,27.1,29.88,ESE,122,1.0,3.0,79,0.00,,,0.00,0,WeatherCatV1.14B232,2013-04-01 23:45:00,
2013-04-02 00:50:00,32.8,27.0,29.88,ESE,113,4.0,6.0,79,0.00,,,0.00,0,WeatherCatV1.14B232,2013-04-01 23:50:00,
2013-04-02 00:55:00,32.9,27.1,29.88,SE,140,0.0,7.0,79,0.00,,,0.00,0,WeatherCatV1.14B232,2013-04-01 23:55:00,
2013-04-02 01:00:00,32.8,27.3,29.88,SE,130,2.0,5.0,80,0.00,,,0.00,0,WeatherCatV1.14B232,2013-04-02 00:00:00,
2013-04-02 01:05:00,32.8,27.3,29.88,SE,130,2.0,9.0,80,0.00,,,0.00,0,WeatherCatV1.14B232,2013-04-02 00:05:00,
2013-04-02 01:10:00,32.9,27.4,29.88,SE,126,4.0,5.0,80,0.00,,,0.00,0,WeatherCatV1.14B232,2013-04-02 00:10:00,
2013-04-02 01:15:00,32.8,27.3,29.88,SE,132,0.0,6.0,80,0.00,,,0.00,0,WeatherCatV1.14B232,2013-04-02 00:15:00,
2013-04-02 01:20:00,32.8,27.3,29.89,ESE,119,1.0,5.0,80,0.00,,,0.00,0,WeatherCatV1.14B232,2013-04-02 00:20:00,
2013-04-02 01:25:00,32.7,27.2,29.89,SE,144,0.0,4.0,80,0.00,,,0.00,0,WeatherCatV1.14B232,2013-04-02 00:25:00,
2013-04-02 01:30:00,32.7,27.5,29.89,SE,132,0.0,4.0,81,0.00,,,0.00,0,WeatherCatV1.14B232,2013-04-02 00:30:00,
2013-04-02 01:35:00,32.6,27.4,29.89,SE,145,0.0,6.0,81,0.00,,,0.00,0,WeatherCatV1.14B232,2013-04-02 00:35:00,
2013-04-02 01:40:00,32.5,27.3,29.89,SE,144,3.0,3.0,81,0.00,,,0.00,0,WeatherCatV1.14B232,2013-04-02 00:40:00,
2013-04-02 01:45:00,32.5,27.3,29.89,SE,131,2.0,4.0,81,0.00,,,0.00,0,WeatherCatV1.14B232,2013-04-02 00:45:00,
2013-04-02 01:50:00,32.4,27.2,29.89,SE,136,0.0,2.0,81,0.00,,,0.00,0,WeatherCatV1.14B232,2013-04-02 00:50:00,
2013-04-02 01:55:00,32.3,27.1,29.89,SE,130,1.0,1.0,81,0.00,,,0.00,0,WeatherCatV1.14B232,2013-04-02 00:55:00,
2013-04-02 02:00:00,32.3,27.1,29.89,SE,126,3.0,5.0,81,0.00,,,0.00,0,WeatherCatV1.14B232,2013-04-02 01:00:00,
2013-04-02 02:05:00,32.3,27.4,29.89,NNW,334,1.0,3.0,82,0.00,,,0.00,0,WeatherCatV1.14B232,2013-04-02 01:05:00,
2013-04-02 02:10:00,32.2,27.3,29.89,SSE,150,0.0,2.0,82,0.00,,,0.00,0,WeatherCatV1.14B232,2013-04-02 01:10:00,
2013-04-02 02:15:00,32.1,27.2,29.89,SE,141,0.0,1.0,82,0.00,,,0.00,0,WeatherCatV1.14B232,2013-04-02 01:15:00,
2013-04-02 02:20:00,32.1,27.2,29.89,South,181,1.0,3.0,82,0.00,,,0.00,0,WeatherCatV1.14B232,2013-04-02 01:20:00,
2013-04-02 02:25:00,32.0,27.1,29.89,ESE,103,0.0,1.0,82,0.00,,,0.00,0,WeatherCatV1.14B232,2013-04-02 01:25:00,
2013-04-02 02:30:00,31.8,26.9,29.89,SE,129,0.0,3.0,82,0.00,,,0.00,0,WeatherCatV1.14B232,2013-04-02 01:30:00,
2013-04-02 02:35:00,31.7,27.1,29.89,SE,145,0.0,3.0,83,0.00,,,0.00,0,WeatherCatV1.14B232,2013-04-02 01:35:00,
2013-04-02 02:40:00,31.6,27.0,29.89,SSE,148,0.0,5.0,83,0.00,,,0.00,0,WeatherCatV1.14B232,2013-04-02 01:40:00,
2013-04-02 02:45:00,31.5,26.9,29.89,SE,126,1.0,4.0,83,0.00,,,0.00,0,WeatherCatV1.14B232,2013-04-02 01:45:00,
2013-04-02 02:50:00,31.5,26.9,29.89,SE,134,0.0,3.0,83,0.00,,,0.00,0,WeatherCatV1.14B232,2013-04-02 01:50:00,
2013-04-02 02:55:00,31.5,27.2,29.89,SE,130,0.0,1.0,84,0.00,,,0.00,0,WeatherCatV1.14B232,2013-04-02 01:55:00,
2013-04-02 03:00:00,31.5,27.2,29.89,SSE,153,1.0,3.0,84,0.00,,,0.00,0,WeatherCatV1.14B232,2013-04-02 02:00:00,
2013-04-02 03:05:00,31.4,27.1,29.89,SE,141,2.0,3.0,84,0.00,,,0.00,0,WeatherCatV1.14B232,2013-04-02 02:05:00,
2013-04-02 03:10:00,31.3,27.0,29.89,SSE,150,0.0,3.0,84,0.00,,,0.00,0,WeatherCatV1.14B232,2013-04-02 02:10:00,
2013-04-02 03:15:00,31.2,26.9,29.89,SE,124,1.0,2.0,84,0.00,,,0.00,0,WeatherCatV1.14B232,2013-04-02 02:15:00,
2013-04-02 03:20:00,31.2,26.9,29.89,SE,128,1.0,3.0,84,0.00,,,0.00,0,WeatherCatV1.14B232,2013-04-02 02:20:00,
2013-04-02 03:25:00,31.2,26.9,29.89,SE,136,2.0,2.0,84,0.00,,,0.00,0,WeatherCatV1.14B232,2013-04-02 02:25:00,
2013-04-02 03:30:00,31.1,27.1,29.89,SE,126,0.0,1.0,85,0.00,,,0.00,0,WeatherCatV1.14B232,2013-04-02 02:30:00,
2013-04-02 03:35:00,31.1,27.1,29.89,West,277,1.0,2.0,85,0.00,,,0.00,0,WeatherCatV1.14B232,2013-04-02 02:35:00,
2013-04-02 03:40:00,31.0,27.0,29.89,South,188,0.0,1.0,85,0.00,,,0.00,0,WeatherCatV1.14B232,2013-04-02 02:40:00,
2013-04-02 03:45:00,31.1,27.1,29.89,ESE,122,1.0,2.0,85,0.00,,,0.00,0,WeatherCatV1.14B232,2013-04-02 02:45:00,
2013-04-02 03:50:00,31.1,27.1,29.89,ESE,120,0.0,2.0,85,0.00,,,0.00,0,WeatherCatV1.14B232,2013-04-02 02:50:00,
2013-04-02 03:55:00,31.1,27.1,29.89,SE,132,0.0,4.0,85,0.00,,,0.00,0,WeatherCatV1.14B232,2013-04-02 02:55:00,
2013-04-02 04:00:00,31.1,27.1,29.89,SE,125,1.0,3.0,85,0.00,,,0.00,0,WeatherCatV1.14B232,2013-04-02 03:00:00,
2013-04-02 04:05:00,31.1,27.4,29.89,South,169,0.0,2.0,86,0.00,,,0.00,0,WeatherCatV1.14B232,2013-04-02 03:05:00,
2013-04-02 04:10:00,31.1,27.4,29.89,ESE,116,0.0,4.0,86,0.00,,,0.00,0,WeatherCatV1.14B232,2013-04-02 03:10:00,
2013-04-02 04:15:00,31.0,27.3,29.89,SE,126,0.0,1.0,86,0.00,,,0.00,0,WeatherCatV1.14B232,2013-04-02 03:15:00,
2013-04-02 04:20:00,31.0,27.3,29.89,East,101,0.0,2.0,86,0.00,,,0.00,0,WeatherCatV1.14B232,2013-04-02 03:20:00,
2013-04-02 04:25:00,31.0,27.3,29.89,SE,138,3.0,3.0,86,0.00,,,0.00,0,WeatherCatV1.14B232,2013-04-02 03:25:00,
2013-04-02 04:30:00,31.0,27.3,29.89,SE,138,0.0,4.0,86,0.00,,,0.00,0,WeatherCatV1.14B232,2013-04-02 03:30:00,
2013-04-02 04:35:00,31.0,27.3,29.89,SE,130,1.0,1.0,86,0.00,,,0.00,0,WeatherCatV1.14B232,2013-04-02 03:35:00,
2013-04-02 04:40:00,31.0,27.6,29.89,SE,130,0.0,3.0,87,0.00,,,0.00,0,WeatherCatV1.14B232,2013-04-02 03:40:00,
2013-04-02 04:45:00,31.0,27.6,29.89,SSE,148,1.0,2.0,87,0.00,,,0.00,0,WeatherCatV1.14B232,2013-04-02 03:45:00,
2013-04-02 04:50:00,31.0,27.6,29.89,SE,136,0.0,2.0,87,0.00,,,0.00,0,WeatherCatV1.14B232,2013-04-02 03:50:00,
2013-04-02 04:55:00,30.9,27.5,29.89,SSE,153,1.0,3.0,87,0.00,,,0.00,0,WeatherCatV1.14B232,2013-04-02 03:55:00,
2013-04-02 05:00:00,30.8,27.4,29.89,South,182,0.0,1.0,87,0.00,,,0.00,0,WeatherCatV1.14B232,2013-04-02 04:00:00,
2013-04-02 05:01:00,30.8,27.4,29.89,South,182,0.0,1.0,87,0.00,,,0.00,0,WeatherCatV1.14B232,2013-04-02 04:01:00,
2013-04-02 05:06:00,30.8,27.4,29.89,SE,133,0.0,2.0,87,0.00,,,0.00,0,WeatherCatV1.14B232,2013-04-02 04:06:00,
2013-04-02 05:11:00,30.7,27.3,29.89,ESE,118,3.0,3.0,87,0.00,,,0.00,0,WeatherCatV1.14B232,2013-04-02 04:11:00,
2013-04-02 05:16:00,30.7,27.6,29.89,SSE,166,0.0,3.0,88,0.00,,,0.00,0,WeatherCatV1.14B232,2013-04-02 04:16:00,
2013-04-02 05:21:00,30.8,27.7,29.89,SE,127,1.0,3.0,88,0.00,,,0.00,0,WeatherCatV1.14B232,2013-04-02 04:21:00,
2013-04-02 05:26:00,30.8,27.7,29.89,NW,318,1.0,1.0,88,0.00,,,0.00,0,WeatherCatV1.14B232,2013-04-02 04:26:00,
2013-04-02 05:31:00,30.8,27.7,29.90,SW,223,0.0,1.0,88,0.00,,,0.00,0,WeatherCatV1.14B232,2013-04-02 04:31:00,
2013-04-02 05:36:00,30.8,27.7,29.90,SE,143,1.0,5.0,88,0.00,,,0.00,0,WeatherCatV1.14B232,2013-04-02 04:36:00,
2013-04-02 05:41:00,30.8,27.7,29.90,SE,144,1.0,3.0,88,0.00,,,0.00,0,WeatherCatV1.14B232,2013-04-02 04:41:00,
2013-04-02 05:46:00,30.9,27.8,29.90,SE,146,2.0,2.0,88,0.00,,,0.00,0,WeatherCatV1.14B232,2013-04-02 04:46:00,
2013-04-02 05:51:00,30.9,27.8,29.90,SE,132,0.0,2.0,88,0.00,,,0.00,0,WeatherCatV1.14B232,2013-04-02 04:51:00,
2013-04-02 05:56:00,30.9,27.8,29.90,SE,144,0.0,3.0,88,0.00,,,0.00,0,WeatherCatV1.14B232,2013-04-02 04:56:00,
2013-04-02 06:04:00,30.8,27.7,29.90,SE,145,0.0,2.0,88,0.00,,,0.00,0,WeatherCatV1.14B232,2013-04-02 05:04:00,
2013-04-02 06:09:00,30.9,27.8,29.90,SSE,148,0.0,1.0,88,0.00,,,0.00,0,WeatherCatV1.14B232,2013-04-02 05:09:00,
2013-04-02 06:14:00,30.9,27.8,29.90,SE,125,0.0,2.0,88,0.00,,,0.00,0,WeatherCatV1.14B232,2013-04-02 05:14:00,
2013-04-02 06:19:00,30.9,28.0,29.90,ESE,121,1.0,5.0,89,0.00,,,0.00,0,WeatherCatV1.14B232,2013-04-02 05:19:00,
2013-04-02 06:24:00,30.9,27.8,29.90,SE,129,2.0,4.0,88,0.00,,,0.00,0,WeatherCatV1.14B232,2013-04-02 05:24:00,
2013-04-02 06:29:00,31.0,28.1,29.90,SE,134,1.0,3.0,89,0.00,,,0.00,0,WeatherCatV1.14B232,2013-04-02 05:29:00,
2013-04-02 06:34:00,31.0,28.1,29.90,SE,126,2.0,4.0,89,0.00,,,0.00,0,WeatherCatV1.14B232,2013-04-02 05:34:00,
2013-04-02 06:39:00,31.1,28.2,29.90,South,184,0.0,4.0,89,0.00,,,0.00,5,WeatherCatV1.14B232,2013-04-02 05:39:00,
2013-04-02 06:44:00,31.2,28.1,29.91,SE,125,0.0,5.0,88,0.00,,,0.00,9,WeatherCatV1.14B232,2013-04-02 05:44:00,
2013-04-02 06:49:00,31.3,28.4,29.91,ESE,120,1.0,5.0,89,0.00,,,0.00,12,WeatherCatV1.14B232,2013-04-02 05:49:00,
2013-04-02 06:54:00,31.4,28.5,29.91,SSE,152,0.0,5.0,89,0.00,,,0.00,16,WeatherCatV1.14B232,2013-04-02 05:54:00,
2013-04-02 06:59:00,31.5,28.4,29.91,SSE,165,1.0,2.0,88,0.00,,,0.00,19,WeatherCatV1.14B232,2013-04-02 05:59:00,
2013-04-02 07:04:00,31.6,28.5,29.91,SSE,155,1.0,1.0,88,0.00,,,0.00,23,WeatherCatV1.14B232,2013-04-02 06:04:00,
2013-04-02 07:09:00,31.7,28.6,29.91,SSE,161,1.0,3.0,88,0.00,,,0.00,28,WeatherCatV1.14B232,2013-04-02 06:09:00,
2013-04-02 07:14:00,31.9,28.8,29.91,SE,142,0.0,4.0,88,0.00,,,0.00,33,WeatherCatV1.14B232,2013-04-02 06:14:00,
2013-04-02 07:19:00,32.0,28.9,29.91,ESE,123,0.0,4.0,88,0.00,,,0.00,44,WeatherCatV1.14B232,2013-04-02 06:19:00,
2013-04-02 07:24:00,32.3,29.2,29.92,SE,130,0.0,5.0,88,0.00,,,0.00,54,WeatherCatV1.14B232,2013-04-02 06:24:00,
2013-04-02 07:29:00,32.5,29.1,29.92,SE,143,1.0,5.0,87,0.00,,,0.00,65,WeatherCatV1.14B232,2013-04-02 06:29:00,
2013-04-02 07:34:00,32.7,29.3,29.92,ESE,123,0.0,2.0,87,0.00,,,0.00,77,WeatherCatV1.14B232,2013-04-02 06:34:00,
2013-04-02 07:39:00,32.9,29.5,29.92,SE,126,1.0,3.0,87,0.00,,,0.00,91,WeatherCatV1.14B232,2013-04-02 06:39:00,
2013-04-02 07:44:00,33.0,29.3,29.92,SE,136,0.0,3.0,86,0.00,,,0.00,105,WeatherCatV1.14B232,2013-04-02 06:44:00,
2013-04-02 07:49:00,33.2,29.5,29.92,SE,138,3.0,3.0,86,0.00,,,0.00,120,WeatherCatV1.14B232,2013-04-02 06:49:00,
2013-04-02 07:54:00,33.5,29.8,29.92,SE,124,0.0,3.0,86,0.00,,,0.00,137,WeatherCatV1.14B232,2013-04-02 06:54:00,
2013-04-02 07:59:00,33.8,29.8,29.92,ESE,120,1.0,4.0,85,0.00,,,0.00,155,WeatherCatV1.14B232,2013-04-02 06:59:00,
2013-04-02 08:04:00,34.1,30.1,29.92,SSE,168,1.0,2.0,85,0.00,,,0.00,172,WeatherCatV1.14B232,2013-04-02 07:04:00,
2013-04-02 08:09:00,34.4,30.4,29.92,SE,128,1.0,4.0,85,0.00,,,0.00,190,WeatherCatV1.14B232,2013-04-02 07:09:00,
2013-04-02 08:14:00,34.8,30.5,29.92,ESE,104,3.0,5.0,84,0.00,,,0.00,207,WeatherCatV1.14B232,2013-04-02 07:14:00,
2013-04-02 08:19:00,35.1,30.8,29.93,SSE,161,1.0,2.0,84,0.00,,,0.00,223,WeatherCatV1.14B232,2013-04-02 07:19:00,
2013-04-02 08:24:00,35.3,30.7,29.93,South,177,1.0,3.0,83,0.00,,,0.00,239,WeatherCatV1.14B232,2013-04-02 07:24:00,
2013-04-02 08:29:00,35.6,30.7,29.93,SE,141,2.0,5.0,82,0.00,,,0.00,253,WeatherCatV1.14B232,2013-04-02 07:29:00,
2013-04-02 08:35:00,36.1,31.1,29.93,WSW,240,1.0,5.0,82,0.00,,,0.00,272,WeatherCatV1.14B232,2013-04-02 07:35:00,
2013-04-02 08:40:00,36.3,31.0,29.93,SE,140,0.0,3.0,81,0.00,,,0.00,285,WeatherCatV1.14B232,2013-04-02 07:40:00,
2013-04-02 08:45:00,36.7,31.4,29.93,ESE,122,4.0,8.0,81,0.00,,,0.00,295,WeatherCatV1.14B232,2013-04-02 07:45:00,
2013-04-02 08:50:00,37.0,31.4,29.93,SE,124,1.0,5.0,80,0.00,,,0.00,311,WeatherCatV1.14B232,2013-04-02 07:50:00,
2013-04-02 08:55:00,37.2,31.6,29.93,SE,140,3.0,4.0,80,0.00,,,0.00,329,WeatherCatV1.14B232,2013-04-02 07:55:00,
2013-04-02 09:00:00,37.3,31.4,29.94,ESE,119,5.0,5.0,79,0.00,,,0.00,341,WeatherCatV1.14B232,2013-04-02 08:00:00,
2013-04-02 09:05:00,37.4,31.5,29.94,SE,132,2.0,6.0,79,0.00,,,0.00,355,WeatherCatV1.14B232,2013-04-02 08:05:00,
2013-04-02 09:10:00,37.7,31.8,29.94,SE,126,3.0,3.0,79,0.00,,,0.00,373,WeatherCatV1.14B232,2013-04-02 08:10:00,
2013-04-02 09:15:00,38.2,32.0,29.94,ESE,120,2.0,5.0,78,0.00,,,0.00,385,WeatherCatV1.14B232,2013-04-02 08:15:00,
2013-04-02 09:20:00,38.5,31.6,29.94,SE,136,3.0,6.0,76,0.00,,,0.00,401,WeatherCatV1.14B232,2013-04-02 08:20:00,
2013-04-02 09:25:00,38.7,31.8,29.94,ESE,117,1.0,6.0,76,0.00,,,0.00,413,WeatherCatV1.14B232,2013-04-02 08:25:00,
2013-04-02 09:30:00,38.7,31.1,29.94,ESE,123,4.0,7.0,74,0.00,,,0.00,427,WeatherCatV1.14B232,2013-04-02 08:30:00,
2013-04-02 09:35:00,39.0,31.8,29.94,ESE,109,2.0,3.0,75,0.00,,,0.00,438,WeatherCatV1.14B232,2013-04-02 08:35:00,
2013-04-02 09:40:00,39.4,31.5,29.94,SSW,195,1.0,6.0,73,0.00,,,0.00,454,WeatherCatV1.14B232,2013-04-02 08:40:00,
2013-04-02 09:45:00,39.4,31.1,29.94,ESE,117,4.0,6.0,72,0.00,,,0.00,469,WeatherCatV1.14B232,2013-04-02 08:45:00,
2013-04-02 09:50:00,39.5,30.9,29.95,ESE,123,4.0,5.0,71,0.00,,,0.00,480,WeatherCatV1.14B232,2013-04-02 08:50:00,
2013-04-02 09:55:00,39.5,30.9,29.95,SE,128,6.0,6.0,71,0.00,,,0.00,490,WeatherCatV1.14B232,2013-04-02 08:55:00,
2013-04-02 10:00:00,39.8,30.5,29.95,SE,132,5.0,6.0,69,0.00,,,0.00,504,WeatherCatV1.14B232,2013-04-02 09:00:00,
2013-04-02 10:05:00,40.0,30.7,29.95,SE,130,6.0,6.0,69,0.00,,,0.00,515,WeatherCatV1.14B232,2013-04-02 09:05:00,
2013-04-02 10:10:00,40.3,30.2,29.95,SE,130,1.0,6.0,67,0.00,,,0.00,536,WeatherCatV1.14B232,2013-04-02 09:10:00,
2013-04-02 10:15:00,40.6,29.0,29.95,SE,136,1.0,7.0,63,0.00,,,0.00,582,WeatherCatV1.14B232,2013-04-02 09:15:00,
2013-04-02 10:20:00,41.0,29.0,29.95,SE,130,5.0,5.0,62,0.00,,,0.00,582,WeatherCatV1.14B232,2013-04-02 09:20:00,
2013-04-02 10:25:00,41.3,28.1,29.95,ESE,123,11.0,11.0,59,0.00,,,0.00,594,WeatherCatV1.14B232,2013-04-02 09:25:00,
2013-04-02 10:30:00,41.5,27.4,29.95,SE,128,8.0,14.0,57,0.00,,,0.00,594,WeatherCatV1.14B232,2013-04-02 09:30:00,
2013-04-02 10:35:00,41.6,27.1,29.95,SE,130,4.0,9.0,56,0.00,,,0.00,643,WeatherCatV1.14B232,2013-04-02 09:35:00,
2013-04-02 10:40:00,42.3,26.9,29.95,South,179,1.0,5.0,54,0.00,,,0.00,561,WeatherCatV1.14B232,2013-04-02 09:40:00,
2013-04-02 10:45:00,42.6,26.2,29.95,SE,145,13.0,13.0,52,0.00,,,0.00,663,WeatherCatV1.14B232,2013-04-02 09:45:00,
2013-04-02 10:50:00,42.3,25.0,29.95,SE,124,5.0,12.0,50,0.00,,,0.00,564,WeatherCatV1.14B232,2013-04-02 09:50:00,
2013-04-02 10:55:00,42.6,25.8,29.95,SE,134,7.0,7.0,51,0.00,,,0.00,192,WeatherCatV1.14B232,2013-04-02 09:55:00,
2013-04-02 11:00:00,42.6,26.2,29.96,ESE,123,5.0,5.0,52,0.00,,,0.00,671,WeatherCatV1.14B232,2013-04-02 10:00:00,
2013-04-02 11:05:00,42.7,26.8,29.96,SE,126,8.0,11.0,53,0.00,,,0.00,657,WeatherCatV1.14B232,2013-04-02 10:05:00,
2013-04-02 11:10:00,42.8,27.3,29.96,SE,126,6.0,11.0,54,0.00,,,0.00,703,WeatherCatV1.14B232,2013-04-02 10:10:00,
2013-04-02 11:15:00,42.7,25.8,29.96,SE,142,5.0,13.0,51,0.00,,,0.00,686,WeatherCatV1.14B232,2013-04-02 10:15:00,
2013-04-02 11:20:00,42.5,25.2,29.96,SE,134,5.0,7.0,50,0.00,,,0.00,675,WeatherCatV1.14B232,2013-04-02 10:20:00,
2013-04-02 11:25:00,43.0,26.1,29.96,SE,143,1.0,13.0,51,0.00,,,0.00,740,WeatherCatV1.14B232,2013-04-02 10:25:00,
2013-04-02 11:30:00,42.5,26.1,29.96,SE,141,6.0,6.0,52,0.00,,,0.00,613,WeatherCatV1.14B232,2013-04-02 10:30:00,
2013-04-02 11:35:00,42.6,26.7,29.96,East,92,0.0,5.0,53,0.00,,,0.00,886,WeatherCatV1.14B232,2013-04-02 10:35:00,
2013-04-02 11:40:00,42.7,27.2,29.96,SSE,168,1.0,3.0,54,0.00,,,0.00,202,WeatherCatV1.14B232,2013-04-02 10:40:00,
2013-04-02 11:45:00,42.4,27.8,29.96,ESE,123,4.0,8.0,56,0.00,,,0.00,712,WeatherCatV1.14B232,2013-04-02 10:45:00,
2013-04-02 11:50:00,42.7,27.7,29.96,SE,140,4.0,15.0,55,0.00,,,0.00,246,WeatherCatV1.14B232,2013-04-02 10:50:00,
2013-04-02 11:55:00,42.8,26.9,29.96,SE,134,4.0,4.0,53,0.00,,,0.00,882,WeatherCatV1.14B232,2013-04-02 10:55:00,
2013-04-02 12:00:00,44.7,27.7,29.96,SE,135,3.0,8.0,51,0.00,,,0.00,946,WeatherCatV1.14B232,2013-04-02 11:00:00,
2013-04-02 12:05:00,44.2,26.8,29.96,SE,127,1.0,2.0,50,0.00,,,0.00,946,WeatherCatV1.14B232,2013-04-02 11:05:00,
2013-04-02 12:10:00,44.7,27.2,29.96,SE,125,8.0,9.0,50,0.00,,,0.00,812,WeatherCatV1.14B232,2013-04-02 11:10:00,
2013-04-02 12:15:00,45.2,26.2,29.96,WSW,252,5.0,11.0,47,0.00,,,0.00,835,WeatherCatV1.14B232,2013-04-02 11:15:00,
2013-04-02 12:20:00,45.3,25.8,29.96,SE,138,6.0,7.0,46,0.00,,,0.00,807,WeatherCatV1.14B232,2013-04-02 11:20:00,
2013-04-02 12:25:00,44.9,25.4,29.96,SE,146,4.0,7.0,46,0.00,,,0.00,840,WeatherCatV1.14B232,2013-04-02 11:25:00,
2013-04-02 12:30:00,44.6,25.6,29.96,SE,139,2.0,9.0,47,0.00,,,0.00,835,WeatherCatV1.14B232,2013-04-02 11:30:00,
2013-04-02 12:35:00,44.0,25.6,29.97,SE,126,4.0,11.0,48,0.00,,,0.00,179,WeatherCatV1.14B232,2013-04-02 11:35:00,
2013-04-02 12:40:00,43.7,25.8,29.96,ESE,123,4.0,11.0,49,0.00,,,0.00,911,WeatherCatV1.14B232,2013-04-02 11:40:00,
2013-04-02 12:45:00,44.3,25.9,29.96,SSE,153,0.0,6.0,48,0.00,,,0.00,162,WeatherCatV1.14B232,2013-04-02 11:45:00,
2013-04-02 12:50:00,43.6,25.2,29.96,SE,137,3.0,3.0,48,0.00,,,0.00,826,WeatherCatV1.14B232,2013-04-02 11:50:00,
2013-04-02 12:55:00,44.2,25.8,29.97,ESE,113,11.0,11.0,48,0.00,,,0.00,821,WeatherCatV1.14B232,2013-04-02 11:55:00,
2013-04-02 13:00:00,44.1,25.7,29.96,ESE,119,3.0,5.0,48,0.00,,,0.00,816,WeatherCatV1.14B232,2013-04-02 12:00:00,
2013-04-02 13:05:00,43.5,25.1,29.96,SE,125,6.0,8.0,48,0.00,,,0.00,200,WeatherCatV1.14B232,2013-04-02 12:05:00,
2013-04-02 13:10:00,43.2,24.9,29.96,SE,146,1.0,13.0,48,0.00,,,0.00,823,WeatherCatV1.14B232,2013-04-02 12:10:00,
2013-04-02 13:15:00,44.2,25.3,29.96,SE,136,3.0,7.0,47,0.00,,,0.00,338,WeatherCatV1.14B232,2013-04-02 12:15:00,
2013-04-02 13:20:00,43.4,25.0,29.96,SE,124,0.0,4.0,48,0.00,,,0.00,204,WeatherCatV1.14B232,2013-04-02 12:20:00,
2013-04-02 13:25:00,43.8,25.4,29.96,SSW,200,0.0,4.0,48,0.00,,,0.00,160,WeatherCatV1.14B232,2013-04-02 12:25:00,
2013-04-02 13:30:00,43.8,23.3,29.96,SE,128,6.0,13.0,44,0.00,,,0.00,779,WeatherCatV1.14B232,2013-04-02 12:30:00,
2013-04-02 13:35:00,45.3,24.7,29.96,SE,134,10.0,13.0,44,0.00,,,0.00,795,WeatherCatV1.14B232,2013-04-02 12:35:00,
2013-04-02 13:40:00,45.8,25.1,29.96,SE,130,6.0,14.0,44,0.00,,,0.00,803,WeatherCatV1.14B232,2013-04-02 12:40:00,
2013-04-02 13:45:00,45.6,23.8,29.96,SE,136,6.0,9.0,42,0.00,,,0.00,793,WeatherCatV1.14B232,2013-04-02 12:45:00,
2013-04-02 13:50:00,45.8,24.0,29.96,SE,140,4.0,8.0,42,0.00,,,0.00,854,WeatherCatV1.14B232,2013-04-02 12:50:00,
2013-04-02 13:55:00,45.6,24.4,29.96,South,169,5.0,8.0,43,0.00,,,0.00,860,WeatherCatV1.14B232,2013-04-02 12:55:00,
2013-04-02 14:00:00,44.7,23.0,29.97,SSE,158,1.0,9.0,42,0.00,,,0.00,246,WeatherCatV1.14B232,2013-04-02 13:00:00,
2013-04-02 14:05:00,44.0,23.0,29.96,SE,130,8.0,8.0,43,0.00,,,0.00,824,WeatherCatV1.14B232,2013-04-02 13:05:00,
2013-04-02 14:10:00,44.4,23.3,29.97,ESE,120,0.0,9.0,43,0.00,,,0.00,754,WeatherCatV1.14B232,2013-04-02 13:10:00,
2013-04-02 14:15:00,45.4,23.7,29.96,SE,142,2.0,9.0,42,0.00,,,0.00,765,WeatherCatV1.14B232,2013-04-02 13:15:00,
2013-04-02 14:20:00,45.2,22.3,29.96,SE,125,2.0,5.0,40,0.00,,,0.00,770,WeatherCatV1.14B232,2013-04-02 13:20:00,
2013-04-02 14:25:00,45.4,23.1,29.96,SE,138,7.0,8.0,41,0.00,,,0.00,729,WeatherCatV1.14B232,2013-04-02 13:25:00,
2013-04-02 14:30:00,45.8,22.3,29.96,SE,139,3.0,4.0,39,0.00,,,0.00,708,WeatherCatV1.14B232,2013-04-02 13:30:00,
2013-04-02 14:35:00,46.1,21.9,29.96,East,84,7.0,14.0,38,0.00,,,0.00,714,WeatherCatV1.14B232,2013-04-02 13:35:00,
2013-04-02 14:40:00,45.9,22.4,29.96,South,178,1.0,8.0,39,0.00,,,0.00,728,WeatherCatV1.14B232,2013-04-02 13:40:00,
2013-04-02 14:45:00,46.0,23.0,29.96,SE,129,10.0,10.0,40,0.00,,,0.00,694,WeatherCatV1.14B232,2013-04-02 13:45:00,
2013-04-02 14:50:00,45.7,22.8,29.97,SE,134,13.0,19.0,40,0.00,,,0.00,670,WeatherCatV1.14B232,2013-04-02 13:50:00,
2013-04-02 14:55:00,45.1,20.4,29.97,ESE,116,8.0,10.0,37,0.00,,,0.00,673,WeatherCatV1.14B232,2013-04-02 13:55:00,
2013-04-02 15:00:00,45.7,21.6,29.97,ESE,109,4.0,11.0,38,0.00,,,0.00,661,WeatherCatV1.14B232,2013-04-02 14:00:00,
2013-04-02 15:05:00,45.2,21.1,29.97,ESE,123,5.0,11.0,38,0.00,,,0.00,650,WeatherCatV1.14B232,2013-04-02 14:05:00,
2013-04-02 15:10:00,45.5,18.8,29.97,ESE,116,17.0,17.0,34,0.00,,,0.00,645,WeatherCatV1.14B232,2013-04-02 14:10:00,
2013-04-02 15:15:00,45.1,19.1,29.97,SE,127,2.0,14.0,35,0.00,,,0.00,640,WeatherCatV1.14B232,2013-04-02 14:15:00,
2013-04-02 15:20:00,45.0,18.3,29.97,SE,126,9.0,14.0,34,0.00,,,0.00,628,WeatherCatV1.14B232,2013-04-02 14:20:00,
2013-04-02 15:25:00,45.2,19.2,29.97,SE,134,2.0,9.0,35,0.00,,,0.00,615,WeatherCatV1.14B232,2013-04-02 14:25:00,
2013-04-02 15:30:00,46.0,20.6,29.97,SSE,148,6.0,7.0,36,0.00,,,0.00,606,WeatherCatV1.14B232,2013-04-02 14:30:00,
2013-04-02 15:35:00,45.5,19.5,29.97,ESE,109,7.0,19.0,35,0.00,,,0.00,599,WeatherCatV1.14B232,2013-04-02 14:35:00,
2013-04-02 15:40:00,45.8,21.0,29.97,SE,128,7.0,22.0,37,0.00,,,0.00,587,WeatherCatV1.14B232,2013-04-02 14:40:00,
2013-04-02 15:45:00,46.0,21.2,29.97,South,171,8.0,18.0,37,0.00,,,0.00,575,WeatherCatV1.14B232,2013-04-02 14:45:00,
2013-04-02 15:50:00,45.7,20.3,29.97,East,89,1.0,7.0,36,0.00,,,0.00,564,WeatherCatV1.14B232,2013-04-02 14:50:00,
2013-04-02 15:55:00,45.4,20.7,29.97,East,93,5.0,9.0,37,0.00,,,0.00,552,WeatherCatV1.14B232,2013-04-02 14:55:00,
2013-04-02 16:00:00,45.4,21.3,29.97,East,90,14.0,14.0,38,0.00,,,0.00,540,WeatherCatV1.14B232,2013-04-02 15:00:00,
2013-04-02 16:05:00,45.8,22.3,29.97,ESE,122,2.0,10.0,39,0.00,,,0.00,527,WeatherCatV1.14B232,2013-04-02 15:05:00,
2013-04-02 16:10:00,45.9,21.7,29.97,SSE,159,1.0,7.0,38,0.00,,,0.00,520,WeatherCatV1.14B232,2013-04-02 15:10:00,
2013-04-02 16:15:00,45.8,21.0,29.97,ESE,116,4.0,9.0,37,0.00,,,0.00,508,WeatherCatV1.14B232,2013-04-02 15:15:00,
2013-04-02 16:20:00,45.3,21.2,29.97,SE,140,1.0,11.0,38,0.00,,,0.00,494,WeatherCatV1.14B232,2013-04-02 15:20:00,
2013-04-02 16:25:00,45.1,21.6,29.97,ESE,106,2.0,10.0,39,0.00,,,0.00,482,WeatherCatV1.14B232,2013-04-02 15:25:00,
2013-04-02 16:30:00,45.1,20.4,29.97,SE,127,2.0,8.0,37,0.00,,,0.00,468,WeatherCatV1.14B232,2013-04-02 15:30:00,
2013-04-02 16:35:00,45.4,20.0,29.97,SE,129,4.0,4.0,36,0.00,,,0.00,455,WeatherCatV1.14B232,2013-04-02 15:35:00,
2013-04-02 16:40:00,45.2,20.5,29.97,SSE,149,7.0,16.0,37,0.00,,,0.00,439,WeatherCatV1.14B232,2013-04-02 15:40:00,
2013-04-02 16:45:00,45.6,20.8,29.97,ESE,120,2.0,9.0,37,0.00,,,0.00,425,WeatherCatV1.14B232,2013-04-02 15:45:00,
2013-04-02 16:50:00,45.1,21.0,29.97,SE,124,7.0,16.0,38,0.00,,,0.00,410,WeatherCatV1.14B232,2013-04-02 15:50:00,
2013-04-02 16:55:00,45.4,20.7,29.97,East,97,7.0,11.0,37,0.00,,,0.00,396,WeatherCatV1.14B232,2013-04-02 15:55:00,
2013-04-02 17:00:00,45.4,20.7,29.97,SSE,148,4.0,6.0,37,0.00,,,0.00,383,WeatherCatV1.14B232,2013-04-02 16:00:00,
2013-04-02 17:05:00,45.1,20.4,29.98,SE,128,1.0,6.0,37,0.00,,,0.00,364,WeatherCatV1.14B232,2013-04-02 16:05:00,
2013-04-02 17:10:00,44.7,20.7,29.98,SE,138,0.0,3.0,38,0.00,,,0.00,355,WeatherCatV1.14B232,2013-04-02 16:10:00,
2013-04-02 17:15:00,46.0,21.8,29.98,ESE,122,2.0,8.0,38,0.00,,,0.00,343,WeatherCatV1.14B232,2013-04-02 16:15:00,
2013-04-02 17:20:00,45.3,21.2,29.98,SE,128,2.0,11.0,38,0.00,,,0.00,327,WeatherCatV1.14B232,2013-04-02 16:20:00,
2013-04-02 17:25:00,44.7,20.0,29.98,ESE,123,2.0,6.0,37,0.00,,,0.00,309,WeatherCatV1.14B232,2013-04-02 16:25:00,
2013-04-02 17:30:00,44.2,19.6,29.98,SE,130,2.0,4.0,37,0.00,,,0.00,299,WeatherCatV1.14B232,2013-04-02 16:30:00,
2013-04-02 17:35:00,44.2,20.2,29.98,SSW,211,5.0,10.0,38,0.00,,,0.00,287,WeatherCatV1.14B232,2013-04-02 16:35:00,
2013-04-02 17:40:00,44.4,19.8,29.98,ESE,115,3.0,6.0,37,0.00,,,0.00,269,WeatherCatV1.14B232,2013-04-02 16:40:00,
2013-04-02 17:45:00,43.8,19.2,29.98,SE,126,4.0,7.0,37,0.00,,,0.00,253,WeatherCatV1.14B232,2013-04-02 16:45:00,
2013-04-02 17:50:00,44.3,20.3,29.98,SSE,149,2.0,5.0,38,0.00,,,0.00,232,WeatherCatV1.14B232,2013-04-02 16:50:00,
2013-04-02 17:55:00,44.2,19.6,29.99,ESE,121,7.0,8.0,37,0.00,,,0.00,185,WeatherCatV1.14B232,2013-04-02 16:55:00,
2013-04-02 18:00:00,44.1,19.5,29.99,SE,132,3.0,10.0,37,0.00,,,0.00,188,WeatherCatV1.14B232,2013-04-02 17:00:00,
2013-04-02 18:05:00,44.0,19.4,29.99,East,98,0.0,3.0,37,0.00,,,0.00,183,WeatherCatV1.14B232,2013-04-02 17:05:00,
2013-04-02 18:10:00,43.8,19.2,29.99,SE,126,9.0,9.0,37,0.00,,,0.00,153,WeatherCatV1.14B232,2013-04-02 17:10:00,
2013-04-02 18:15:00,43.5,19.0,29.99,SSE,147,2.0,7.0,37,0.00,,,0.00,120,WeatherCatV1.14B232,2013-04-02 17:15:00,
2013-04-02 18:20:00,43.3,18.2,29.99,ESE,120,5.0,14.0,36,0.00,,,0.00,95,WeatherCatV1.14B232,2013-04-02 17:20:00,
2013-04-02 18:25:00,43.2,18.7,29.99,SE,127,5.0,9.0,37,0.00,,,0.00,79,WeatherCatV1.14B232,2013-04-02 17:25:00,
2013-04-02 18:30:00,43.0,18.5,29.99,SE,128,5.0,5.0,37,0.00,,,0.00,70,WeatherCatV1.14B232,2013-04-02 17:30:00,
2013-04-02 18:35:00,42.9,18.4,30.00,SE,129,3.0,4.0,37,0.00,,,0.00,44,WeatherCatV1.14B232,2013-04-02 17:35:00,
2013-04-02 18:40:00,42.8,17.7,30.00,SE,128,4.0,11.0,36,0.00,,,0.00,35,WeatherCatV1.14B232,2013-04-02 17:40:00,
2013-04-02 18:45:00,42.6,18.2,30.00,ESE,116,3.0,4.0,37,0.00,,,0.00,33,WeatherCatV1.14B232,2013-04-02 17:45:00,
2013-04-02 18:50:00,42.4,18.6,30.00,SE,128,3.0,7.0,38,0.00,,,0.00,28,WeatherCatV1.14B232,2013-04-02 17:50:00,
2013-04-02 18:55:00,42.2,18.4,30.00,SE,140,3.0,9.0,38,0.00,,,0.00,26,WeatherCatV1.14B232,2013-04-02 17:55:00,
2013-04-02 19:00:00,42.1,18.3,30.01,SE,130,3.0,10.0,38,0.00,,,0.00,23,WeatherCatV1.14B232,2013-04-02 18:00:00,
2013-04-02 19:05:00,41.8,18.7,30.01,SE,132,1.0,7.0,39,0.00,,,0.00,21,WeatherCatV1.14B232,2013-04-02 18:05:00,
2013-04-02 19:10:00,41.6,19.7,30.00,SSE,153,2.0,7.0,41,0.00,,,0.00,18,WeatherCatV1.14B232,2013-04-02 18:10:00,
2013-04-02 19:15:00,41.4,19.5,30.00,SE,131,1.0,7.0,41,0.00,,,0.00,16,WeatherCatV1.14B232,2013-04-02 18:15:00,
2013-04-02 19:20:00,41.2,19.9,30.01,SE,131,1.0,4.0,42,0.00,,,0.00,12,WeatherCatV1.14B232,2013-04-02 18:20:00,
2013-04-02 19:25:00,41.1,19.8,30.01,SE,136,3.0,8.0,42,0.00,,,0.00,11,WeatherCatV1.14B232,2013-04-02 18:25:00,
2013-04-02 19:30:00,40.9,20.1,30.01,ESE,122,5.0,12.0,43,0.00,,,0.00,7,WeatherCatV1.14B232,2013-04-02 18:30:00,
2013-04-02 19:35:00,40.7,20.5,30.01,SE,130,2.0,5.0,44,0.00,,,0.00,5,WeatherCatV1.14B232,2013-04-02 18:35:00,
2013-04-02 19:40:00,40.5,20.9,30.01,SE,132,0.0,3.0,45,0.00,,,0.00,0,WeatherCatV1.14B232,2013-04-02 18:40:00,
2013-04-02 19:45:00,40.3,20.7,30.02,SSE,149,5.0,6.0,45,0.00,,,0.00,0,WeatherCatV1.14B232,2013-04-02 18:45:00,
2013-04-02 19:50:00,40.1,21.0,30.02,SSW,192,2.0,4.0,46,0.00,,,0.00,0,WeatherCatV1.14B232,2013-04-02 18:50:00,
2013-04-02 19:55:00,40.0,21.4,30.02,SE,144,3.0,7.0,47,0.00,,,0.00,0,WeatherCatV1.14B232,2013-04-02 18:55:00,
2013-04-02 20:00:00,39.8,21.7,30.02,SSE,151,3.0,3.0,48,0.00,,,0.00,0,WeatherCatV1.14B232,2013-04-02 19:00:00,
2013-04-02 20:05:00,39.6,21.5,30.02,SE,139,2.0,6.0,48,0.00,,,0.00,0,WeatherCatV1.14B232,2013-04-02 19:05:00,
2013-04-02 20:10:00,39.5,21.9,30.02,SE,127,1.0,13.0,49,0.00,,,0.00,0,WeatherCatV1.14B232,2013-04-02 19:10:00,
2013-04-02 20:15:00,39.3,21.8,30.03,SSE,150,1.0,4.0,49,0.00,,,0.00,0,WeatherCatV1.14B232,2013-04-02 19:15:00,
2013-04-02 20:20:00,39.2,21.7,30.03,SE,130,0.0,5.0,49,0.00,,,0.00,0,WeatherCatV1.14B232,2013-04-02 19:20:00,
2013-04-02 20:25:00,39.0,22.0,30.03,SE,131,0.0,5.0,50,0.00,,,0.00,0,WeatherCatV1.14B232,2013-04-02 19:25:00,
2013-04-02 20:30:00,38.8,21.8,30.03,SE,131,0.0,3.0,50,0.00,,,0.00,0,WeatherCatV1.14B232,2013-04-02 19:30:00,
2013-04-02 20:35:00,38.6,22.1,30.03,SE,135,0.0,1.0,51,0.00,,,0.00,0,WeatherCatV1.14B232,2013-04-02 19:35:00,
2013-04-02 20:40:00,38.4,21.9,30.04,SE,131,3.0,3.0,51,0.00,,,0.00,0,WeatherCatV1.14B232,2013-04-02 19:40:00,
2013-04-02 20:45:00,38.3,22.2,30.04,SE,129,2.0,8.0,52,0.00,,,0.00,0,WeatherCatV1.14B232,2013-04-02 19:45:00,
2013-04-02 20:50:00,38.2,22.1,30.04,SE,128,6.0,6.0,52,0.00,,,0.00,0,WeatherCatV1.14B232,2013-04-02 19:50:00,
2013-04-02 20:55:00,38.1,22.5,30.04,SE,136,0.0,2.0,53,0.00,,,0.00,0,WeatherCatV1.14B232,2013-04-02 19:55:00,
2013-04-02 21:00:00,38.0,22.4,30.04,SE,130,0.0,3.0,53,0.00,,,0.00,0,WeatherCatV1.14B232,2013-04-02 20:00:00,
2013-04-02 21:05:00,37.8,22.7,30.04,SE,132,0.0,4.0,54,0.00,,,0.00,0,WeatherCatV1.14B232,2013-04-02 20:05:00,
2013-04-02 21:10:00,37.8,22.7,30.04,East,100,1.0,3.0,54,0.00,,,0.00,0,WeatherCatV1.14B232,2013-04-02 20:10:00,
2013-04-02 21:15:00,37.7,23.0,30.05,SE,124,2.0,2.0,55,0.00,,,0.00,0,WeatherCatV1.14B232,2013-04-02 20:15:00,
2013-04-02 21:20:00,37.6,23.3,30.05,ESE,121,1.0,4.0,56,0.00,,,0.00,0,WeatherCatV1.14B232,2013-04-02 20:20:00,
2013-04-02 21:25:00,37.4,23.2,30.05,ESE,123,1.0,1.0,56,0.00,,,0.00,0,WeatherCatV1.14B232,2013-04-02 20:25:00,
2013-04-02 21:30:00,37.3,23.5,30.05,ESE,121,2.0,2.0,57,0.00,,,0.00,0,WeatherCatV1.14B232,2013-04-02 20:30:00,
2013-04-02 21:35:00,37.1,23.3,30.05,SE,136,0.0,2.0,57,0.00,,,0.00,0,WeatherCatV1.14B232,2013-04-02 20:35:00,
2013-04-02 21:40:00,37.0,23.6,30.05,SSE,164,2.0,2.0,58,0.00,,,0.00,0,WeatherCatV1.14B232,2013-04-02 20:40:00,
2013-04-02 21:45:00,36.8,23.4,30.05,NNE,29,1.0,1.0,58,0.00,,,0.00,0,WeatherCatV1.14B232,2013-04-02 20:45:00,
2013-04-02 21:50:00,36.7,23.7,30.05,North,0,0.0,1.0,59,0.00,,,0.00,0,WeatherCatV1.14B232,2013-04-02 20:50:00,
2013-04-02 21:55:00,36.5,23.6,30.06,South,174,0.0,1.0,59,0.00,,,0.00,0,WeatherCatV1.14B232,2013-04-02 20:55:00,
2013-04-02 22:00:00,36.4,23.9,30.05,SE,129,0.0,4.0,60,0.00,,,0.00,0,WeatherCatV1.14B232,2013-04-02 21:00:00,
2013-04-02 22:05:00,36.3,24.2,30.05,ESE,121,2.0,4.0,61,0.00,,,0.00,0,WeatherCatV1.14B232,2013-04-02 21:05:00,
2013-04-02 22:10:00,36.2,24.1,30.05,SE,146,1.0,3.0,61,0.00,,,0.00,0,WeatherCatV1.14B232,2013-04-02 21:10:00,
2013-04-02 22:15:00,36.0,24.3,30.05,South,171,0.0,2.0,62,0.00,,,0.00,0,WeatherCatV1.14B232,2013-04-02 21:15:00,
2013-04-02 22:20:00,35.9,24.5,30.05,South,181,0.0,1.0,63,0.00,,,0.00,0,WeatherCatV1.14B232,2013-04-02 21:20:00,
2013-04-02 22:25:00,35.7,24.4,30.05,ESE,123,1.0,4.0,63,0.00,,,0.00,0,WeatherCatV1.14B232,2013-04-02 21:25:00,
2013-04-02 22:30:00,35.6,24.6,30.06,South,189,0.0,1.0,64,0.00,,,0.00,0,WeatherCatV1.14B232,2013-04-02 21:30:00,
2013-04-02 22:35:00,35.5,24.9,30.06,SSE,166,1.0,2.0,65,0.00,,,0.00,0,WeatherCatV1.14B232,2013-04-02 21:35:00,
2013-04-02 22:40:00,35.3,24.7,30.06,North,355,0.0,2.0,65,0.00,,,0.00,0,WeatherCatV1.14B232,2013-04-02 21:40:00,
2013-04-02 22:45:00,35.2,24.6,30.06,SSE,163,0.0,1.0,65,0.00,,,0.00,0,WeatherCatV1.14B232,2013-04-02 21:45:00,
2013-04-02 22:50:00,35.1,24.9,30.06,SE,127,1.0,2.0,66,0.00,,,0.00,0,WeatherCatV1.14B232,2013-04-02 21:50:00,
2013-04-02 22:55:00,35.0,25.2,30.06,North,355,0.0,1.0,67,0.00,,,0.00,0,WeatherCatV1.14B232,2013-04-02 21:55:00,
2013-04-02 23:00:00,34.9,25.1,30.06,SE,126,0.0,1.0,67,0.00,,,0.00,0,WeatherCatV1.14B232,2013-04-02 22:00:00,
2013-04-02 23:05:00,34.7,25.2,30.06,SE,132,0.0,5.0,68,0.00,,,0.00,0,WeatherCatV1.14B232,2013-04-02 22:05:00,
2013-04-02 23:10:00,34.6,25.1,30.06,ESE,110,0.0,2.0,68,0.00,,,0.00,0,WeatherCatV1.14B232,2013-04-02 22:10:00,
2013-04-02 23:15:00,34.6,25.5,30.06,SSE,161,0.0,2.0,69,0.00,,,0.00,0,WeatherCatV1.14B232,2013-04-02 22:15:00,
2013-04-02 23:20:00,34.6,25.5,30.05,South,169,1.0,2.0,69,0.00,,,0.00,0,WeatherCatV1.14B232,2013-04-02 22:20:00,
2013-04-02 23:25:00,34.5,25.7,30.06,SSE,152,2.0,3.0,70,0.00,,,0.00,0,WeatherCatV1.14B232,2013-04-02 22:25:00,
2013-04-02 23:30:00,34.4,25.6,30.06,East,92,1.0,6.0,70,0.00,,,0.00,0,WeatherCatV1.14B232,2013-04-02 22:30:00,
2013-04-02 23:35:00,34.4,26.0,30.06,SSE,164,0.0,3.0,71,0.00,,,0.00,0,WeatherCatV1.14B232,2013-04-02 22:35:00,
2013-04-02 23:40:00,34.3,25.9,30.06,SSE,151,0.0,3.0,71,0.00,,,0.00,0,WeatherCatV1.14B232,2013-04-02 22:40:00,
2013-04-02 23:45:00,34.2,26.1,30.06,SE,136,3.0,3.0,72,0.00,,,0.00,0,WeatherCatV1.14B232,2013-04-02 22:45:00,
2013-04-02 23:50:00,34.1,26.0,30.06,SSE,151,1.0,3.0,72,0.00,,,0.00,0,WeatherCatV1.14B232,2013-04-02 22:50:00,
2013-04-02 23:55:00,34.1,26.4,30.05,SE,141,0.0,2.0,73,0.00,,,0.00,0,WeatherCatV1.14B232,2013-04-02 22:55:00,